When you browse on this site, cookies collect data to enhance your experience and personalize the content and advertising you see.
Visit our Privacy Policy to learn more. By continuing to use the site, you agree to this use of cookies and data.
  • In Germany
  • List of Countries
  • For 7 days
  • Water Temperature
  • Satellite Maps
  • Weather Map
  • Weather Widgets
  • user-avatar
    Login

    Hourly Weather Olbia

    Today, 14 December, Friday

    Time Temperature Precipitation Wind Pressure Humidity
    00:00 +11°C° 1 mm 3 mps 753 mmHg 95%
    01:00 +12°C° 0 mm 4 mps 753 mmHg 95%
    02:00 +12°C° 1.2 mm 4 mps 753 mmHg 95%
    03:00 +12°C° 1.2 mm 5 mps 753 mmHg 95%
    04:00 +12°C° 1.2 mm 5 mps 753 mmHg 95%
    05:00 +10°C° 1.2 mm 5 mps 753 mmHg 94%
    06:00 +10°C° 1.2 mm 6 mps 753 mmHg 94%
    07:00 +10°C° 1.2 mm 6 mps 753 mmHg 93%
    08:00 +10°C° 0.4 mm 7 mps 753 mmHg 93%
    09:00 +10°C° 0.4 mm 7 mps 753 mmHg 92%
    10:00 +9°C° 0.4 mm 7 mps 754 mmHg 92%
    11:00 +9°C° 0.1 mm 7 mps 754 mmHg 91%
    12:00 +9°C° 0.1 mm 7 mps 754 mmHg 90%
    13:00 +9°C° 0.1 mm 7 mps 755 mmHg 89%
    14:00 +9°C° 0.1 mm 7 mps 755 mmHg 88%
    15:00 +9°C° 0.1 mm 7 mps 755 mmHg 87%
    16:00 +9°C° 0.1 mm 7 mps 755 mmHg 86%
    17:00 +9°C° 0 mm 7 mps 756 mmHg 86%
    18:00 +9°C° 0 mm 7 mps 756 mmHg 86%
    19:00 +9°C° 0 mm 6 mps 757 mmHg 86%
    20:00 +9°C° 0 mm 6 mps 757 mmHg 85%
    21:00 +9°C° 0 mm 6 mps 758 mmHg 84%
    22:00 +9°C° 0 mm 6 mps 758 mmHg 84%
    23:00 +8°C° 0 mm 6 mps 758 mmHg 83%

    Tomorrow, 15 December, Saturday

    Time Temperature Precipitation Wind Pressure Humidity
    00:00 +8°C° 0 mm 6 mps 759 mmHg 83%
    01:00 +8°C° 0 mm 5 mps 759 mmHg 83%
    02:00 +8°C° 0 mm 5 mps 759 mmHg 83%
    03:00 +8°C° 0 mm 5 mps 759 mmHg 82%
    04:00 +8°C° 0 mm 5 mps 760 mmHg 82%
    05:00 +8°C° 0 mm 5 mps 760 mmHg 82%
    06:00 +7°C° 0 mm 5 mps 760 mmHg 82%
    07:00 +7°C° 0 mm 6 mps 761 mmHg 83%
    08:00 +7°C° 0 mm 6 mps 761 mmHg 80%
    09:00 +8°C° 0 mm 6 mps 761 mmHg 77%
    10:00 +9°C° 0 mm 6 mps 762 mmHg 74%
    11:00 +9°C° 0 mm 5 mps 762 mmHg 71%
    12:00 +9°C° 0 mm 5 mps 762 mmHg 67%
    13:00 +10°C° 0 mm 5 mps 762 mmHg 64%
    14:00 +10°C° 0 mm 5 mps 762 mmHg 64%
    15:00 +10°C° 0 mm 4 mps 762 mmHg 64%
    16:00 +10°C° 0 mm 4 mps 763 mmHg 64%
    17:00 +8°C° 0 mm 4 mps 763 mmHg 69%
    18:00 +7°C° 0 mm 4 mps 763 mmHg 74%
    19:00 +7°C° 0 mm 3 mps 764 mmHg 79%
    20:00 +5°C° 0 mm 3 mps 764 mmHg 80%
    21:00 +5°C° 0 mm 3 mps 764 mmHg 81%
    22:00 +5°C° 0 mm 3 mps 765 mmHg 82%
    23:00 +5°C° 0 mm 3 mps 765 mmHg 83%

    Day after tomorrow, 16 December, Sunday

    Time Temperature Precipitation Wind Pressure Humidity
    00:00 +6°C° 0 mm 2 mps 765 mmHg 84%
    01:00 +6°C° 0 mm 2 mps 765 mmHg 84%
    02:00 +6°C° 0 mm 2 mps 764 mmHg 84%
    03:00 +6°C° 0 mm 2 mps 764 mmHg 84%
    04:00 +6°C° 0 mm 2 mps 764 mmHg 84%
    05:00 +7°C° 0 mm 2 mps 764 mmHg 82%
    06:00 +7°C° 0 mm 2 mps 764 mmHg 80%
    07:00 +8°C° 0 mm 2 mps 764 mmHg 78%
    08:00 +9°C° 0 mm 2 mps 764 mmHg 76%
    09:00 +10°C° 0 mm 3 mps 764 mmHg 74%
    10:00 +12°C° 0 mm 3 mps 765 mmHg 72%
    11:00 +13°C° 0 mm 3 mps 764 mmHg 71%
    12:00 +14°C° 0 mm 3 mps 764 mmHg 69%
    13:00 +16°C° 0 mm 3 mps 764 mmHg 67%
    14:00 +16°C° 0 mm 3 mps 764 mmHg 71%
    15:00 +16°C° 0 mm 3 mps 763 mmHg 74%
    16:00 +14°C° 0 mm 3 mps 763 mmHg 77%
    17:00 +14°C° 0 mm 4 mps 763 mmHg 81%
    18:00 +13°C° 0 mm 4 mps 763 mmHg 84%
    19:00 +12°C° 0 mm 4 mps 763 mmHg 88%
    20:00 +12°C° 0 mm 4 mps 763 mmHg 90%
    21:00 +12°C° 0 mm 5 mps 762 mmHg 92%
    22:00 +12°C° 0 mm 5 mps 762 mmHg 93%
    23:00 +13°C° 0.1 mm 5 mps 762 mmHg 92%

    17 December, Monday

    Time Temperature Precipitation Wind Pressure Humidity
    00:00 +14°C° 0.1 mm 5 mps 762 mmHg 91%
    01:00 +14°C° 0.1 mm 5 mps 761 mmHg 89%
    02:00 +14°C° 0 mm 6 mps 761 mmHg 88%
    03:00 +14°C° 0 mm 6 mps 761 mmHg 86%
    04:00 +14°C° 0 mm 7 mps 760 mmHg 85%
    05:00 +14°C° 0 mm 7 mps 761 mmHg 86%
    06:00 +13°C° 0 mm 6 mps 761 mmHg 86%
    07:00 +13°C° 0 mm 6 mps 761 mmHg 87%
    08:00 +13°C° 0 mm 6 mps 761 mmHg 85%
    09:00 +12°C° 0 mm 7 mps 762 mmHg 83%
    10:00 +14°C° 0 mm 7 mps 762 mmHg 80%
    11:00 +14°C° 0 mm 7 mps 762 mmHg 77%
    12:00 +14°C° 0 mm 7 mps 763 mmHg 73%
    13:00 +14°C° 0 mm 7 mps 763 mmHg 69%
    14:00 +13°C° 0 mm 8 mps 763 mmHg 69%
    15:00 +12°C° 0 mm 8 mps 763 mmHg 70%
    16:00 +12°C° 0 mm 8 mps 763 mmHg 70%
    17:00 +11°C° 0 mm 8 mps 763 mmHg 71%
    18:00 +11°C° 0 mm 8 mps 763 mmHg 72%
    19:00 +10°C° 0 mm 8 mps 764 mmHg 73%
    20:00 +10°C° 0 mm 8 mps 764 mmHg 72%
    21:00 +10°C° 0 mm 7 mps 764 mmHg 70%
    22:00 +10°C° 0 mm 7 mps 765 mmHg 69%
    23:00 +10°C° 0 mm 6 mps 765 mmHg 72%

    18 December, Tuesday

    Time Temperature Precipitation Wind Pressure Humidity
    00:00 +9°C° 0 mm 5 mps 765 mmHg 75%
    01:00 +9°C° 0 mm 5 mps 765 mmHg 77%
    02:00 +10°C° 0 mm 4 mps 766 mmHg 80%
    03:00 +10°C° 0 mm 4 mps 766 mmHg 82%
    04:00 +10°C° 0 mm 4 mps 766 mmHg 85%
    05:00 +8°C° 0 mm 4 mps 766 mmHg 86%
    06:00 +8°C° 0 mm 4 mps 767 mmHg 87%
    07:00 +9°C° 0 mm 3 mps 767 mmHg 88%
    08:00 +10°C° 0 mm 4 mps 768 mmHg 83%
    09:00 +11°C° 0 mm 4 mps 768 mmHg 78%
    10:00 +12°C° 0 mm 4 mps 769 mmHg 73%
    11:00 +13°C° 0 mm 3 mps 769 mmHg 67%
    12:00 +13°C° 0 mm 3 mps 769 mmHg 61%
    13:00 +14°C° 0 mm 3 mps 768 mmHg 56%
    14:00 +14°C° 0 mm 3 mps 768 mmHg 58%
    15:00 +13°C° 0 mm 3 mps 768 mmHg 61%
    16:00 +13°C° 0 mm 3 mps 768 mmHg 63%
    17:00 +12°C° 0 mm 2 mps 768 mmHg 69%
    18:00 +10°C° 0 mm 2 mps 769 mmHg 74%
    19:00 +8°C° 0 mm 2 mps 769 mmHg 80%
    20:00 +8°C° 0 mm 2 mps 769 mmHg 80%
    21:00 +8°C° 0 mm 2 mps 769 mmHg 80%
    22:00 +8°C° 0 mm 2 mps 769 mmHg 80%
    23:00 +8°C° 0 mm 2 mps 769 mmHg 78%

    19 December, Wednesday

    Time Temperature Precipitation Wind Pressure Humidity
    00:00 +8°C° 0 mm 2 mps 769 mmHg 77%
    01:00 +8°C° 0 mm 2 mps 769 mmHg 75%
    02:00 +8°C° 0 mm 2 mps 769 mmHg 74%
    03:00 +8°C° 0 mm 2 mps 769 mmHg 74%
    04:00 +8°C° 0 mm 1 mps 769 mmHg 73%
    05:00 +8°C° 0 mm 1 mps 768 mmHg 71%
    06:00 +7°C° 0 mm 2 mps 768 mmHg 70%
    07:00 +7°C° 0 mm 2 mps 768 mmHg 69%
    08:00 +9°C° 0 mm 2 mps 768 mmHg 64%
    09:00 +10°C° 0 mm 2 mps 768 mmHg 60%
    10:00 +13°C° 0 mm 2 mps 769 mmHg 56%
    11:00 +14°C° 0 mm 2 mps 768 mmHg 53%
    12:00 +15°C° 0 mm 2 mps 768 mmHg 51%
    13:00 +16°C° 0 mm 3 mps 767 mmHg 48%
    14:00 +14°C° 0 mm 3 mps 767 mmHg 53%
    15:00 +14°C° 0 mm 3 mps 766 mmHg 57%
    16:00 +13°C° 0 mm 3 mps 766 mmHg 62%
    17:00 +12°C° 0 mm 3 mps 766 mmHg 65%
    18:00 +11°C° 0 mm 3 mps 766 mmHg 68%
    19:00 +10°C° 0 mm 3 mps 766 mmHg 71%
    20:00 +10°C° 0 mm 3 mps 766 mmHg 68%
    21:00 +10°C° 0 mm 3 mps 766 mmHg 65%
    22:00 +10°C° 0 mm 3 mps 765 mmHg 61%
    23:00 +10°C° 0 mm 4 mps 765 mmHg 60%
    Show more